Regional Weather Roundup
Issued by NWS Spokane, WA

Home | Current Version | Previous Version | Text Only | Print | Product List | Glossary On
Versions: 1 2 3 4 5 6 7 8 9 10 11 12 13 14 15 16 17 18 19 20 21 22 23 24 25 26 27 28 29 30 31 32 33 34 35 36 37 38 39 40 41 42 43 44 45 46 47 48 49 50
000
NZUS01 KOTX 161925
RWROTX

Eastern Washington/Northern Idaho Roundup
National Weather Service, Spokane WA
1100 AM PST SAT DEC 16 2017

Note: "fair" indicated few or no clouds below 12,000 feet with no
significant weather and/or obstructions to visibility.

...Northeast Washington and Northern Idaho Panhandle...

CITY           SKY/WX    TMP DP  RH WIND       PRES   REMARKS
Spokane Intl   CLOUDY    25  24  96 E6        30.23S FOG     WCI  18
Spokane Downto CLOUDY    29  25  85 S3        30.26S
Coeur d Alene  CLOUDY    30  27  86 SW5       30.24S WCI  25
Deer Park      CLOUDY    28  24  85 E5        30.24S WCI  23
Sandpoint      CLOUDY    32  27  80 S6        30.22F WCI  26
Bonners Ferry  CLOUDY    30  25  80 S3        30.20S

...Southeast Washington and southern Idaho Panhandle...

CITY           SKY/WX    TMP DP  RH WIND       PRES   REMARKS
Walla Walla    CLOUDY    34  30  85 N5        30.30R FOG     WCI  30
Pullman/Moscow FOG       26  25  96 NW5       30.25R VSB 1   WCI  20
Lewiston       CLOUDY    31  29  92 CALM      30.30R
Lowell           N/A     32  29  88 CALM      30.29R
Grangeville    CLOUDY    27  27 100 E8        30.20R WCI  18

...Columbia Basin...

CITY           SKY/WX    TMP DP  RH WIND       PRES   REMARKS
Ephrata        FOG       29  25  85 NE3       30.30R VSB 1/2
Moses Lake     CLOUDY    30  28  92 CALM      30.31S
Pasco          CLOUDY    35  31  85 N3        30.36S
Richland       CLOUDY    35  32  88 NE6       30.36S
Hermiston      PTSUNNY   32  31  96 CALM      30.32S FOG
Pendleton      MOSUNNY   38  33  82 NW5       30.27S

...East Slopes Cascades...

CITY           SKY/WX    TMP DP  RH WIND       PRES   REMARKS
The Dalles     PTSUNNY   48  36  63 NW13      30.33S
Yakima         PTSUNNY   33  29  85 CALM      30.30S
Ellensburg     PTSUNNY   41  30  65 NW10      30.24F
Stampede Pass  SNOW      31  29  92 VRB3      30.19F VSB 1/4
Wenatchee      CLOUDY    30  29  96 SE3       30.29S
Omak           CLOUDY    28  28 100 CALM      30.29S
Sunnyside      CLOUDY    27  26  96 CALM      30.33S FOG

...Southern British Columbia...

CITY           SKY/WX    TMP DP  RH WIND       PRES   REMARKS
Penticton      PTSUNNY   32  28  86 S12       30.27S WCI  23
Castlegar      CLOUDY    32  27  80 S7        30.25S WCI  26
Cranbrook      MOSUNNY   23  16  74 VRB2      30.13F
Osoyoos          N/A     32  28  86 S5          N/A  WCI  27
Creston          N/A     34  25  69 CALM        N/A

...Western Montana...

CITY           SKY/WX    TMP DP  RH WIND       PRES   REMARKS
Kalispell      MOCLDY    29  26  89 S3        30.10S
Libby            N/A     32  25  74 E3        30.14S
Missoula       CLOUDY    32  26  78 N6        30.10R WCI  26

...Neighboring Cities...

CITY           SKY/WX    TMP DP  RH WIND       PRES   REMARKS
Seattle        CLOUDY    43  38  82 SE7       30.33F
Portland       LGT RAIN  43  39  86 SE6       30.39S
Boise          SUNNY     30  24  78 NW9       30.11S WCI  22
Great Falls    CLOUDY    31  26  82 SE9       30.01S WCI  23
Calgary        MOSUNNY   34   7  32 W8G17     29.93F WCI  27



USA.gov is the U.S. government's official web portal to all federal, state and local government web resources and services.